Time,TemperatureF,DewpointF,PressureIn,WindDirection,WindDirectionDegrees,WindSpeedMPH,WindSpeedGustMPH,Humidity,HourlyPrecipIn,Conditions,Clouds,dailyrainin,SoftwareType,DateUTC
2013-07-16 00:08:00,71.2,59.5,30.33,South,180,3.3,9.1,67,0.00,,,0.00,WUHU21636XXSP,2013-07-16 05:08:00,
2013-07-16 00:18:00,70.7,59.0,30.33,South,180,4.0,12.9,67,0.00,,,0.00,WUHU21636XXSP,2013-07-16 05:18:00,
2013-07-16 00:28:00,70.5,59.4,30.33,SSE,157,4.2,4.9,68,0.00,,,0.00,WUHU21636XXSP,2013-07-16 05:28:00,
2013-07-16 00:38:00,70.2,59.9,30.33,SSE,157,4.2,12.7,70,0.00,,,0.00,WUHU21636XXSP,2013-07-16 05:38:00,
2013-07-16 00:48:00,69.6,59.7,30.32,South,180,4.4,12.5,71,0.00,,,0.00,WUHU21636XXSP,2013-07-16 05:48:00,
2013-07-16 00:58:00,69.4,59.9,30.32,SSE,157,3.3,7.1,72,0.00,,,0.00,WUHU21636XXSP,2013-07-16 05:58:00,
2013-07-16 01:08:00,69.3,59.7,30.33,SSE,157,4.9,6.2,72,0.00,,,0.00,WUHU21636XXSP,2013-07-16 06:08:00,
2013-07-16 01:18:00,69.1,59.9,30.33,South,180,4.6,4.9,73,0.00,,,0.00,WUHU21636XXSP,2013-07-16 06:18:00,
2013-07-16 01:28:00,68.9,60.1,30.33,SSE,157,3.3,4.6,74,0.00,,,0.00,WUHU21636XXSP,2013-07-16 06:28:00,
2013-07-16 01:38:00,68.5,59.9,30.33,South,180,4.9,4.9,74,0.00,,,0.00,WUHU21636XXSP,2013-07-16 06:38:00,
2013-07-16 01:48:00,68.4,60.4,30.33,SSE,157,3.1,6.7,76,0.00,,,0.00,WUHU21636XXSP,2013-07-16 06:48:00,
2013-07-16 01:58:00,68.0,60.4,30.33,South,180,2.4,3.1,77,0.00,,,0.00,WUHU21636XXSP,2013-07-16 06:58:00,
2013-07-16 02:08:00,67.8,60.6,30.33,South,180,0.6,5.1,78,0.00,,,0.00,WUHU21636XXSP,2013-07-16 07:08:00,
2013-07-16 02:18:00,67.6,60.8,30.33,South,180,1.3,7.1,80,0.00,,,0.00,WUHU21636XXSP,2013-07-16 07:18:00,
2013-07-16 02:28:00,67.1,61.0,30.33,SSW,202,8.5,12.5,81,0.00,,,0.00,WUHU21636XXSP,2013-07-16 07:28:00,
2013-07-16 02:38:00,66.9,61.2,30.33,SSW,202,5.5,12.9,82,0.00,,,0.00,WUHU21636XXSP,2013-07-16 07:38:00,
2013-07-16 02:48:00,66.7,61.0,30.33,South,180,8.0,12.7,82,0.00,,,0.00,WUHU21636XXSP,2013-07-16 07:48:00,
2013-07-16 02:58:00,66.4,61.0,30.32,South,180,4.4,10.9,83,0.00,,,0.00,WUHU21636XXSP,2013-07-16 07:58:00,
2013-07-16 03:08:00,66.4,61.0,30.33,SSW,202,3.8,10.7,83,0.00,,,0.00,WUHU21636XXSP,2013-07-16 08:08:00,
2013-07-16 03:18:00,66.4,61.0,30.33,South,180,2.4,8.2,83,0.00,,,0.00,WUHU21636XXSP,2013-07-16 08:18:00,
2013-07-16 03:28:00,66.4,61.3,30.33,South,180,4.4,4.4,84,0.00,,,0.00,WUHU21636XXSP,2013-07-16 08:28:00,
2013-07-16 03:38:00,66.6,61.5,30.34,South,180,6.4,7.1,84,0.00,,,0.00,WUHU21636XXSP,2013-07-16 08:38:00,
2013-07-16 03:48:00,66.6,61.5,30.33,South,180,2.9,6.9,84,0.00,,,0.00,WUHU21636XXSP,2013-07-16 08:48:00,
2013-07-16 03:58:00,66.6,61.5,30.33,SE,135,3.1,9.1,84,0.00,,,0.00,WUHU21636XXSP,2013-07-16 08:58:00,
2013-07-16 04:08:00,66.7,61.7,30.32,SSW,202,2.4,4.4,84,0.00,,,0.00,WUHU21636XXSP,2013-07-16 09:08:00,
2013-07-16 04:18:00,66.7,61.7,30.32,South,180,0.0,3.8,83,0.00,,,0.00,WUHU21636XXSP,2013-07-16 09:18:00,
2013-07-16 04:28:00,66.9,61.5,30.32,SE,135,6.9,7.6,83,0.00,,,0.00,WUHU21636XXSP,2013-07-16 09:28:00,
2013-07-16 04:38:00,67.1,61.7,30.32,SE,135,6.2,7.8,83,0.00,,,0.00,WUHU21636XXSP,2013-07-16 09:38:00,
2013-07-16 04:48:00,66.9,61.5,30.32,South,180,4.9,6.2,83,0.00,,,0.00,WUHU21636XXSP,2013-07-16 09:48:00,
2013-07-16 04:58:00,66.9,61.5,30.32,SSE,157,0.0,4.9,83,0.00,,,0.00,WUHU21636XXSP,2013-07-16 09:58:00,
2013-07-16 05:08:00,66.9,61.5,30.32,SSE,157,0.0,5.1,83,0.00,,,0.00,WUHU21636XXSP,2013-07-16 10:08:00,
2013-07-16 05:18:00,67.1,61.3,30.33,SSE,157,5.1,5.3,82,0.00,,,0.00,WUHU21636XXSP,2013-07-16 10:18:00,
2013-07-16 05:28:00,67.1,61.7,30.33,SSE,157,0.0,5.1,82,0.00,,,0.00,WUHU21636XXSP,2013-07-16 10:28:00,
2013-07-16 05:38:00,66.9,61.2,30.32,SSE,157,2.4,10.2,82,0.00,,,0.00,WUHU21636XXSP,2013-07-16 10:38:00,
2013-07-16 05:48:00,66.7,61.0,30.32,SSE,157,3.8,5.1,82,0.00,,,0.00,WUHU21636XXSP,2013-07-16 10:48:00,
2013-07-16 05:58:00,66.4,60.6,30.33,South,180,0.0,3.8,82,0.00,,,0.00,WUHU21636XXSP,2013-07-16 10:58:00,
2013-07-16 06:08:00,66.4,60.6,30.33,SE,135,0.2,3.3,82,0.00,,,0.00,WUHU21636XXSP,2013-07-16 11:08:00,
2013-07-16 06:18:00,66.0,60.3,30.33,South,180,4.6,4.6,82,0.00,,,0.00,WUHU21636XXSP,2013-07-16 11:18:00,
2013-07-16 06:28:00,65.5,60.1,30.34,South,180,3.8,4.6,83,0.00,,,0.00,WUHU21636XXSP,2013-07-16 11:28:00,
2013-07-16 06:38:00,65.5,60.1,30.34,SW,225,2.4,8.2,83,0.00,,,0.00,WUHU21636XXSP,2013-07-16 11:38:00,
2013-07-16 06:48:00,65.7,59.9,30.34,South,180,1.7,7.3,82,0.00,,,0.00,WUHU21636XXSP,2013-07-16 11:48:00,
2013-07-16 06:58:00,65.7,60.3,30.34,SSE,157,3.3,3.3,83,0.00,,,0.00,WUHU21636XXSP,2013-07-16 11:58:00,
2013-07-16 07:08:00,65.7,59.9,30.34,South,180,6.7,10.7,82,0.00,,,0.00,WUHU21636XXSP,2013-07-16 12:08:00,
2013-07-16 07:18:00,65.8,60.4,30.34,SSE,157,10.7,10.7,83,0.00,,,0.00,WUHU21636XXSP,2013-07-16 12:18:00,
2013-07-16 07:28:00,65.8,60.1,30.34,SSE,157,3.5,13.4,82,0.00,,,0.00,WUHU21636XXSP,2013-07-16 12:28:00,
2013-07-16 07:38:00,66.0,60.3,30.35,SE,135,6.0,12.9,82,0.00,,,0.00,WUHU21636XXSP,2013-07-16 12:38:00,
2013-07-16 07:48:00,66.2,60.4,30.35,SSE,157,3.8,6.0,82,0.00,,,0.00,WUHU21636XXSP,2013-07-16 12:48:00,
2013-07-16 07:58:00,66.0,60.3,30.35,SSW,202,6.2,12.7,82,0.00,,,0.00,WUHU21636XXSP,2013-07-16 12:58:00,
2013-07-16 08:08:00,66.4,60.6,30.36,SSE,157,3.5,10.5,82,0.00,,,0.00,WUHU21636XXSP,2013-07-16 13:08:00,
2013-07-16 08:18:00,66.4,60.6,30.36,SSE,157,6.9,14.7,82,0.00,,,0.00,WUHU21636XXSP,2013-07-16 13:18:00,
2013-07-16 08:28:00,66.6,60.8,30.36,South,180,1.7,6.9,82,0.00,,,0.00,WUHU21636XXSP,2013-07-16 13:28:00,
2013-07-16 08:38:00,66.9,61.2,30.37,SE,135,2.0,10.0,82,0.00,,,0.00,WUHU21636XXSP,2013-07-16 13:38:00,
2013-07-16 08:48:00,66.9,60.8,30.37,SSW,202,6.9,15.4,81,0.00,,,0.00,WUHU21636XXSP,2013-07-16 13:48:00,
2013-07-16 08:58:00,66.7,60.6,30.38,SSW,202,8.2,16.5,81,0.00,,,0.00,WUHU21636XXSP,2013-07-16 13:58:00,
2013-07-16 09:08:00,66.9,61.2,30.38,SSE,157,4.2,11.8,82,0.00,,,0.00,WUHU21636XXSP,2013-07-16 14:08:00,
2013-07-16 09:18:00,67.5,61.3,30.38,SSW,202,6.4,12.3,81,0.00,,,0.00,WUHU21636XXSP,2013-07-16 14:18:00,
2013-07-16 09:28:00,67.8,61.5,30.38,SW,225,6.4,12.0,80,0.00,,,0.00,WUHU21636XXSP,2013-07-16 14:28:00,
2013-07-16 09:38:00,68.5,61.3,30.38,SW,225,10.2,18.5,78,0.00,,,0.00,WUHU21636XXSP,2013-07-16 14:38:00,
2013-07-16 09:48:00,68.9,61.7,30.38,SSE,157,6.4,17.2,78,0.00,,,0.00,WUHU21636XXSP,2013-07-16 14:48:00,
2013-07-16 09:58:00,69.4,61.7,30.38,SSW,202,6.4,14.9,77,0.00,,,0.00,WUHU21636XXSP,2013-07-16 14:58:00,
2013-07-16 10:08:00,70.0,61.2,30.38,SW,225,8.7,16.7,74,0.00,,,0.00,WUHU21636XXSP,2013-07-16 15:08:00,
2013-07-16 10:18:00,70.5,61.0,30.38,WSW,247,10.5,18.7,72,0.00,,,0.00,WUHU21636XXSP,2013-07-16 15:18:00,
2013-07-16 10:28:00,71.2,61.7,30.38,South,180,5.8,18.7,72,0.00,,,0.00,WUHU21636XXSP,2013-07-16 15:28:00,
2013-07-16 10:38:00,71.2,61.3,30.37,SSW,202,14.0,18.3,71,0.00,,,0.00,WUHU21636XXSP,2013-07-16 15:38:00,
2013-07-16 10:48:00,72.3,61.5,30.37,SSW,202,12.9,19.9,69,0.00,,,0.00,WUHU21636XXSP,2013-07-16 15:48:00,
2013-07-16 10:58:00,72.7,62.4,30.37,South,180,8.7,20.3,70,0.00,,,0.00,WUHU21636XXSP,2013-07-16 15:58:00,
2013-07-16 11:08:00,73.0,61.3,30.38,SSE,157,7.1,20.1,67,0.00,,,0.00,WUHU21636XXSP,2013-07-16 16:08:00,
2013-07-16 11:18:00,73.2,61.2,30.38,South,180,12.0,20.3,66,0.00,,,0.00,WUHU21636XXSP,2013-07-16 16:18:00,
2013-07-16 11:28:00,73.2,62.1,30.37,SSE,157,4.4,17.2,68,0.00,,,0.00,WUHU21636XXSP,2013-07-16 16:28:00,
2013-07-16 11:38:00,74.8,62.6,30.37,SSW,202,14.0,23.0,66,0.00,,,0.00,WUHU21636XXSP,2013-07-16 16:38:00,
2013-07-16 11:48:00,75.7,62.1,30.37,SSW,202,11.1,22.8,63,0.00,,,0.00,WUHU21636XXSP,2013-07-16 16:48:00,
2013-07-16 11:58:00,75.6,61.5,30.37,SSW,202,6.7,17.8,62,0.00,,,0.00,WUHU21636XXSP,2013-07-16 16:58:00,
2013-07-16 12:08:00,75.9,61.5,30.37,SW,225,10.9,18.1,61,0.00,,,0.00,WUHU21636XXSP,2013-07-16 17:08:00,
2013-07-16 12:18:00,76.8,61.9,30.37,South,180,3.3,20.1,60,0.00,,,0.00,WUHU21636XXSP,2013-07-16 17:18:00,
2013-07-16 12:28:00,77.7,62.2,30.37,SW,225,10.0,18.3,59,0.00,,,0.00,WUHU21636XXSP,2013-07-16 17:28:00,
2013-07-16 12:38:00,78.6,61.5,30.36,South,180,8.2,23.7,56,0.00,,,0.00,WUHU21636XXSP,2013-07-16 17:38:00,
2013-07-16 12:48:00,78.6,61.5,30.36,SW,225,8.7,18.1,56,0.00,,,0.00,WUHU21636XXSP,2013-07-16 17:48:00,
2013-07-16 12:58:00,79.3,61.7,30.37,SSW,202,8.7,23.9,55,0.00,,,0.00,WUHU21636XXSP,2013-07-16 17:58:00,
2013-07-16 13:08:00,79.9,63.1,30.37,SW,225,9.6,21.6,57,0.00,,,0.00,WUHU21636XXSP,2013-07-16 18:08:00,
2013-07-16 13:18:00,80.2,62.4,30.36,SSW,202,9.8,23.2,55,0.00,,,0.00,WUHU21636XXSP,2013-07-16 18:18:00,
2013-07-16 13:28:00,80.4,63.7,30.36,SW,225,9.1,27.2,56,0.00,,,0.00,WUHU21636XXSP,2013-07-16 18:28:00,
2013-07-16 13:38:00,81.3,63.0,30.36,SW,225,14.7,23.9,54,0.00,,,0.00,WUHU21636XXSP,2013-07-16 18:38:00,
2013-07-16 13:48:00,82.0,62.6,30.36,SW,225,13.4,25.5,52,0.00,,,0.00,WUHU21636XXSP,2013-07-16 18:48:00,
2013-07-16 13:58:00,82.0,63.5,30.36,SSW,202,7.8,22.5,54,0.00,,,0.00,WUHU21636XXSP,2013-07-16 18:58:00,
2013-07-16 14:08:00,83.1,63.0,30.35,SSW,202,15.6,28.1,51,0.00,,,0.00,WUHU21636XXSP,2013-07-16 19:08:00,
2013-07-16 14:18:00,82.9,63.3,30.35,SW,225,15.8,22.8,52,0.00,,,0.00,WUHU21636XXSP,2013-07-16 19:18:00,
2013-07-16 14:28:00,82.6,64.6,30.36,SSW,202,8.2,22.3,55,0.00,,,0.00,WUHU21636XXSP,2013-07-16 19:28:00,
2013-07-16 14:38:00,83.8,64.8,30.35,WSW,247,10.7,22.5,53,0.00,,,0.00,WUHU21636XXSP,2013-07-16 19:38:00,
2013-07-16 14:48:00,83.8,63.7,30.35,South,180,7.6,25.9,51,0.00,,,0.00,WUHU21636XXSP,2013-07-16 19:48:00,
2013-07-16 14:58:00,82.9,62.8,30.35,South,180,11.8,24.8,51,0.00,,,0.00,WUHU21636XXSP,2013-07-16 19:58:00,
2013-07-16 15:08:00,82.9,64.9,30.35,WSW,247,8.9,23.4,55,0.00,,,0.00,WUHU21636XXSP,2013-07-16 20:08:00,
2013-07-16 15:18:00,82.9,63.9,30.35,SSW,202,11.1,21.6,53,0.00,,,0.00,WUHU21636XXSP,2013-07-16 20:18:00,
2013-07-16 15:28:00,83.8,64.2,30.35,SSW,202,14.3,24.8,52,0.00,,,0.00,WUHU21636XXSP,2013-07-16 20:28:00,
2013-07-16 15:38:00,83.5,64.4,30.35,SSW,202,18.1,25.9,53,0.00,,,0.00,WUHU21636XXSP,2013-07-16 20:38:00,
2013-07-16 15:48:00,83.1,63.5,30.35,SW,225,10.2,27.5,52,0.00,,,0.00,WUHU21636XXSP,2013-07-16 20:48:00,
2013-07-16 15:58:00,82.0,63.0,30.35,SW,225,14.5,24.6,53,0.00,,,0.00,WUHU21636XXSP,2013-07-16 20:58:00,
2013-07-16 16:08:00,82.0,63.5,30.35,WSW,247,15.6,29.7,54,0.00,,,0.00,WUHU21636XXSP,2013-07-16 21:08:00,
2013-07-16 16:18:00,81.7,63.3,30.36,SSW,202,11.1,24.3,54,0.00,,,0.00,WUHU21636XXSP,2013-07-16 21:18:00,
2013-07-16 16:28:00,82.2,63.1,30.36,SW,225,13.8,26.3,53,0.00,,,0.00,WUHU21636XXSP,2013-07-16 21:28:00,
2013-07-16 16:38:00,82.8,62.6,30.36,SSW,202,10.5,23.9,51,0.00,,,0.00,WUHU21636XXSP,2013-07-16 21:38:00,
2013-07-16 16:48:00,82.4,63.9,30.36,SW,225,7.3,21.9,54,0.00,,,0.00,WUHU21636XXSP,2013-07-16 21:48:00,
2013-07-16 16:58:00,83.1,62.6,30.36,SSW,202,12.9,25.9,50,0.00,,,0.00,WUHU21636XXSP,2013-07-16 21:58:00,
2013-07-16 17:09:00,83.1,64.0,30.35,South,180,10.5,25.2,53,0.00,,,0.00,WUHU21636XXSP,2013-07-16 22:09:00,
2013-07-16 17:19:00,82.9,63.3,30.36,SSW,202,6.9,16.7,52,0.00,,,0.00,WUHU21636XXSP,2013-07-16 22:19:00,
2013-07-16 17:29:00,81.7,62.8,30.35,SSE,157,4.0,19.9,53,0.00,,,0.00,WUHU21636XXSP,2013-07-16 22:29:00,
2013-07-16 17:39:00,81.0,61.5,30.36,SSW,202,14.5,20.8,52,0.00,,,0.00,WUHU21636XXSP,2013-07-16 22:39:00,
2013-07-16 17:49:00,82.4,64.4,30.36,SE,135,6.0,19.2,55,0.00,,,0.00,WUHU21636XXSP,2013-07-16 22:49:00,
2013-07-16 17:59:00,83.5,62.2,30.36,SW,225,13.1,26.8,49,0.00,,,0.00,WUHU21636XXSP,2013-07-16 22:59:00,
2013-07-16 18:09:00,82.2,62.2,30.35,SSE,157,6.0,22.1,51,0.00,,,0.00,WUHU21636XXSP,2013-07-16 23:09:00,
2013-07-16 18:19:00,81.5,61.5,30.36,South,180,10.9,23.9,51,0.00,,,0.00,WUHU21636XXSP,2013-07-16 23:19:00,
2013-07-16 18:29:00,81.1,61.2,30.35,SSE,157,4.0,21.0,51,0.00,,,0.00,WUHU21636XXSP,2013-07-16 23:29:00,
2013-07-16 18:39:00,81.1,62.2,30.35,SSW,202,8.9,17.4,53,0.00,,,0.00,WUHU21636XXSP,2013-07-16 23:39:00,
2013-07-16 18:49:00,82.2,61.7,30.35,SSW,202,8.7,18.7,50,0.00,,,0.00,WUHU21636XXSP,2013-07-16 23:49:00,
2013-07-16 18:59:00,82.9,62.8,30.35,SSW,202,10.0,25.0,51,0.00,,,0.00,WUHU21636XXSP,2013-07-16 23:59:00,
2013-07-16 19:09:00,81.7,61.7,30.35,SW,225,8.0,15.4,51,0.00,,,0.00,WUHU21636XXSP,2013-07-17 00:09:00,
2013-07-16 19:19:00,81.7,61.2,30.36,SW,225,11.1,23.9,50,0.00,,,0.00,WUHU21636XXSP,2013-07-17 00:19:00,
2013-07-16 19:29:00,82.2,60.4,30.35,SW,225,13.4,23.9,48,0.00,,,0.00,WUHU21636XXSP,2013-07-17 00:29:00,
2013-07-16 19:39:00,81.9,61.3,30.35,SSW,202,12.3,19.2,50,0.00,,,0.00,WUHU21636XXSP,2013-07-17 00:39:00,
2013-07-16 19:49:00,82.0,60.8,30.36,South,180,11.8,23.4,49,0.00,,,0.00,WUHU21636XXSP,2013-07-17 00:49:00,
2013-07-16 19:59:00,81.3,60.8,30.37,SW,225,15.8,25.5,50,0.00,,,0.00,WUHU21636XXSP,2013-07-17 00:59:00,
2013-07-16 20:09:00,80.2,60.4,30.37,South,180,8.9,22.8,51,0.00,,,0.00,WUHU21636XXSP,2013-07-17 01:09:00,
2013-07-16 20:19:00,79.5,60.8,30.37,South,180,13.1,21.9,53,0.00,,,0.00,WUHU21636XXSP,2013-07-17 01:19:00,
2013-07-16 20:29:00,78.6,62.6,30.37,SW,225,14.5,23.2,58,0.00,,,0.00,WUHU21636XXSP,2013-07-17 01:29:00,
2013-07-16 20:39:00,77.9,61.9,30.37,SW,225,9.1,24.1,58,0.00,,,0.00,WUHU21636XXSP,2013-07-17 01:39:00,
2013-07-16 20:49:00,77.4,61.3,30.38,SW,225,15.2,24.6,58,0.00,,,0.00,WUHU21636XXSP,2013-07-17 01:49:00,
2013-07-16 20:59:00,76.6,61.2,30.38,SSW,202,8.7,22.8,59,0.00,,,0.00,WUHU21636XXSP,2013-07-17 01:59:00,
2013-07-16 21:09:00,75.9,60.4,30.38,SW,225,7.3,17.4,59,0.00,,,0.00,WUHU21636XXSP,2013-07-17 02:09:00,
2013-07-16 21:19:00,75.6,61.2,30.39,SSW,202,4.9,15.6,61,0.00,,,0.00,WUHU21636XXSP,2013-07-17 02:19:00,
2013-07-16 21:29:00,75.0,61.0,30.39,SSW,202,4.6,7.3,62,0.00,,,0.00,WUHU21636XXSP,2013-07-17 02:29:00,
2013-07-16 21:39:00,74.5,61.0,30.40,SSW,202,6.9,11.1,63,0.00,,,0.00,WUHU21636XXSP,2013-07-17 02:39:00,
2013-07-16 21:49:00,74.1,61.5,30.40,SSW,202,6.9,14.5,65,0.00,,,0.00,WUHU21636XXSP,2013-07-17 02:49:00,
2013-07-16 21:59:00,73.6,61.3,30.40,South,180,3.5,12.0,66,0.00,,,0.00,WUHU21636XXSP,2013-07-17 02:59:00,
2013-07-16 22:09:00,73.4,61.7,30.40,SSW,202,4.0,8.2,67,0.00,,,0.00,WUHU21636XXSP,2013-07-17 03:09:00,
2013-07-16 22:19:00,73.2,61.5,30.41,South,180,4.0,5.5,67,0.00,,,0.00,WUHU21636XXSP,2013-07-17 03:19:00,
2013-07-16 22:29:00,73.0,61.3,30.42,SSW,202,5.3,8.0,67,0.00,,,0.00,WUHU21636XXSP,2013-07-17 03:29:00,
2013-07-16 22:39:00,72.7,61.5,30.42,SSW,202,3.3,6.7,68,0.00,,,0.00,WUHU21636XXSP,2013-07-17 03:39:00,
2013-07-16 22:49:00,72.7,61.5,30.42,SSW,202,1.7,4.0,68,0.00,,,0.00,WUHU21636XXSP,2013-07-17 03:49:00,
2013-07-16 22:59:00,72.3,60.6,30.42,South,180,0.0,4.2,67,0.00,,,0.00,WUHU21636XXSP,2013-07-17 03:59:00,
2013-07-16 23:09:00,72.1,60.4,30.42,South,180,4.9,4.9,67,0.00,,,0.00,WUHU21636XXSP,2013-07-17 04:09:00,
2013-07-16 23:19:00,71.8,60.6,30.42,South,180,4.4,7.8,68,0.00,,,0.00,WUHU21636XXSP,2013-07-17 04:19:00,
2013-07-16 23:29:00,71.2,60.1,30.42,South,180,2.0,8.0,68,0.00,,,0.00,WUHU21636XXSP,2013-07-17 04:29:00,
2013-07-16 23:39:00,71.2,60.1,30.42,South,180,2.0,8.2,68,0.00,,,0.00,WUHU21636XXSP,2013-07-17 04:39:00,
2013-07-16 23:49:00,70.9,60.1,30.42,South,180,4.6,4.6,69,0.00,,,0.00,WUHU21636XXSP,2013-07-17 04:49:00,
2013-07-16 23:59:00,70.5,60.3,30.42,South,180,2.2,4.6,70,0.00,,,0.00,WUHU21636XXSP,2013-07-17 04:59:00,